TimeEST,TemperatureF,Dew PointF,Humidity,Sea Level PressureIn,VisibilityMPH,Wind Direction,Wind SpeedMPH,Gust SpeedMPH,PrecipitationIn,Events,Conditions,WindDirDegrees,DateUTC
12:53 AM,39.0,37.0,93,29.92,4.0,North,8.1,-,0.07,Rain,Rain,10,2011-11-29 05:53:00
1:15 AM,39.2,37.4,93,29.89,5.0,NNE,8.1,-,0.05,Rain,Rain,20,2011-11-29 06:15:00
1:23 AM,39.2,37.4,93,29.89,5.0,NNE,9.2,-,0.08,Rain,Rain,20,2011-11-29 06:23:00
1:32 AM,39.2,37.4,93,29.89,5.0,NNE,9.2,-,0.11,Rain,Rain,20,2011-11-29 06:32:00
2:15 AM,39.2,-9999,N/A,29.85,6.0,NNE,12.7,-,0.06,Rain,Light Rain,20,2011-11-29 07:15:00
2:43 AM,37.4,-9999,N/A,29.83,5.0,NNE,13.8,-,0.12,Rain,Rain,20,2011-11-29 07:43:00
2:53 AM,37.9,-9999,N/A,29.85,5.0,NNE,12.7,-,0.15,Rain,Rain,30,2011-11-29 07:53:00
3:53 AM,37.9,-9999,N/A,29.84,5.0,NNE,12.7,28.8,0.14,Rain,Rain,30,2011-11-29 08:53:00
5:23 AM,37.4,-9999,N/A,29.81,8.0,NNE,15.0,25.3,0.05,Rain,Rain,20,2011-11-29 10:23:00
5:25 AM,37.4,-9999,N/A,29.81,8.0,NNE,12.7,23.0,0.06,Rain,Light Rain,30,2011-11-29 10:25:00
5:53 AM,37.9,-9999,N/A,29.83,7.0,NNE,17.3,24.2,0.09,Rain,Rain,20,2011-11-29 10:53:00
6:53 AM,37.9,-9999,N/A,29.81,10.0,NNE,19.6,28.8,0.13,Rain,Light Rain,20,2011-11-29 11:53:00
7:53 AM,37.9,-9999,N/A,29.79,10.0,NNE,18.4,28.8,0.06,Rain,Light Rain,20,2011-11-29 12:53:00
8:49 AM,37.4,-9999,N/A,29.78,1.8,NNE,20.7,28.8,0.14,Rain,Rain,30,2011-11-29 13:49:00
8:50 AM,37.9,-9999,N/A,29.80,1.8,NNE,21.9,28.8,0.14,Rain,Rain,30,2011-11-29 13:50:00
9:00 AM,37.4,-9999,N/A,29.76,1.8,NNE,20.7,28.8,0.04,Rain,Rain,20,2011-11-29 14:00:00
9:22 AM,37.4,-9999,N/A,29.76,3.0,NNE,19.6,33.4,0.09,Rain,Rain,30,2011-11-29 14:22:00
9:30 AM,37.4,-9999,N/A,29.76,2.5,NNE,17.3,27.6,0.10,Rain,Light Rain,30,2011-11-29 14:30:00
9:40 AM,37.4,-9999,N/A,29.75,2.5,NNE,19.6,29.9,0.13,Rain,Rain,30,2011-11-29 14:40:00
9:53 AM,37.9,-9999,N/A,29.78,2.5,NNE,18.4,27.6,0.16,Rain,Rain,30,2011-11-29 14:53:00
10:11 AM,39.2,-9999,N/A,29.76,3.0,NNE,19.6,28.8,0.02,Rain,Light Rain,30,2011-11-29 15:11:00
10:53 AM,39.0,-9999,N/A,29.77,3.0,NNE,24.2,28.8,0.05,Rain,Light Rain,20,2011-11-29 15:53:00
11:16 AM,39.2,-9999,N/A,29.73,2.5,NNE,23.0,33.4,0.01,Rain,Light Rain,20,2011-11-29 16:16:00
11:45 AM,39.2,-9999,N/A,29.70,4.0,NNE,26.5,34.5,0.03,Rain,Light Rain,20,2011-11-29 16:45:00
11:53 AM,39.0,-9999,N/A,29.71,5.0,NNE,19.6,34.5,0.03,Rain,Light Rain,30,2011-11-29 16:53:00
12:42 PM,37.4,37.4,100,29.64,2.0,NNE,23.0,32.2,0.03,Snow,Light Snow,20,2011-11-29 17:42:00
12:53 PM,39.0,37.0,93,29.65,2.5,NNE,23.0,33.4,0.04,Rain,Light Rain,20,2011-11-29 17:53:00
1:04 PM,39.2,37.4,93,29.63,4.0,NNE,24.2,33.4,0.01,Rain,Light Rain,20,2011-11-29 18:04:00
1:53 PM,39.0,37.0,93,29.61,3.0,NNE,26.5,39.1,0.06,Rain,Rain,30,2011-11-29 18:53:00
2:51 PM,39.2,35.6,87,29.56,2.0,NNE,25.3,35.7,0.04,Rain,Light Rain,20,2011-11-29 19:51:00
2:53 PM,39.0,37.0,93,29.58,2.5,NNE,23.0,35.7,0.04,Rain,Light Rain,30,2011-11-29 19:53:00
2:57 PM,39.2,37.4,93,29.57,3.0,NNE,24.2,34.5,0.00,,Overcast,30,2011-11-29 19:57:00
3:17 PM,39.2,37.4,93,29.56,-9999.0,NNE,29.9,40.3,0.00,Rain,Light Rain,20,2011-11-29 20:17:00
3:53 PM,39.0,37.0,93,29.62,3.0,NE,18.4,28.8,0.02,Rain,Light Rain,40,2011-11-29 20:53:00
4:30 PM,39.2,37.4,93,29.63,2.5,NE,13.8,20.7,0.07,Rain,Light Rain,40,2011-11-29 21:30:00
4:50 PM,39.2,37.4,93,29.63,3.0,NNE,19.6,27.6,0.10,Rain,Light Rain,30,2011-11-29 21:50:00
4:53 PM,39.0,37.0,93,29.64,3.0,NNE,17.3,27.6,0.10,Rain,Light Rain,20,2011-11-29 21:53:00
4:55 PM,37.4,37.4,100,29.62,4.0,NNE,19.6,27.6,0.01,Rain,Light Rain,30,2011-11-29 21:55:00
5:38 PM,37.4,35.6,93,29.62,6.0,North,12.7,-,0.04,Rain,Light Rain,10,2011-11-29 22:38:00
5:53 PM,37.0,36.0,96,29.64,6.0,North,13.8,21.9,0.05,Rain,Light Rain,360,2011-11-29 22:53:00
6:43 PM,33.8,33.8,100,29.63,1.8,North,15.0,20.7,0.06,Snow,Light Snow,360,2011-11-29 23:43:00
6:53 PM,34.0,33.1,96,29.65,1.8,North,13.8,-,0.08,Snow,Light Snow,360,2011-11-29 23:53:00
7:22 PM,33.8,33.8,100,29.64,1.2,North,15.0,25.3,0.05,Snow,Light Snow,360,2011-11-30 00:22:00
7:32 PM,33.8,33.8,100,29.64,0.8,North,16.1,24.2,0.06,Snow,Light Snow,360,2011-11-30 00:32:00
7:39 PM,33.8,33.8,100,29.64,1.5,North,16.1,-,0.07,Snow,Light Snow,360,2011-11-30 00:39:00
7:53 PM,34.0,33.1,96,29.66,2.5,North,17.3,25.3,0.08,Snow,Light Snow,350,2011-11-30 00:53:00
8:24 PM,33.8,33.8,100,29.64,2.0,North,20.7,116.2,0.02,Snow,Light Snow,360,2011-11-30 01:24:00
8:33 PM,33.8,33.8,100,29.64,2.0,North,19.6,27.6,0.02,Snow,Light Snow,360,2011-11-30 01:33:00
9:00 PM,33.8,32.0,93,29.66,1.2,North,17.3,26.5,0.00,Snow,Light Snow,360,2011-11-30 02:00:00
9:10 PM,33.8,32.0,93,29.66,0.8,North,18.4,25.3,0.01,Snow,Light Snow,360,2011-11-30 02:10:00
9:22 PM,33.8,32.0,93,29.66,1.0,North,16.1,26.5,0.03,Snow,Light Snow,350,2011-11-30 02:22:00
9:42 PM,33.8,32.0,93,29.66,0.8,North,20.7,26.5,0.04,Snow,Light Snow,360,2011-11-30 02:42:00
9:49 PM,33.8,32.0,93,29.65,1.2,North,15.0,32.2,0.05,Snow,Light Snow,350,2011-11-30 02:49:00
9:53 PM,34.0,32.0,92,29.67,1.2,North,17.3,25.3,0.05,Snow,Light Snow,350,2011-11-30 02:53:00
10:02 PM,33.8,32.0,93,29.65,1.5,North,19.6,26.5,0.01,Snow,Light Snow,350,2011-11-30 03:02:00
10:18 PM,33.8,32.0,93,29.65,2.5,North,18.4,26.5,0.02,Snow,Light Snow,360,2011-11-30 03:18:00
10:23 PM,33.8,32.0,93,29.66,3.0,North,18.4,25.3,0.02,Snow,Light Snow,360,2011-11-30 03:23:00
10:31 PM,33.8,32.0,93,29.66,4.0,North,15.0,-,0.02,Snow,Light Snow,360,2011-11-30 03:31:00
10:45 PM,33.8,32.0,93,29.66,3.0,North,16.1,25.3,0.02,Snow,Light Snow,350,2011-11-30 03:45:00
11:50 PM,33.8,32.0,93,29.66,5.0,NNW,17.3,24.2,0.00,Snow,Light Snow,340,2011-11-30 04:50:00
11:53 PM,33.1,30.9,92,29.68,5.0,NNW,17.3,24.2,0.00,Snow,Light Snow,340,2011-11-30 04:53:00